GFSMA_925_temp_000.txt.gz
Temp
24 24 23 23 23 24 24 24 23 23 23 23 23 23 23 23 22 23 24 22 22 22 22 21 21 20 20 20 20 20 19 20 19 20 19 19 19 19 19 19 19 19 19
23 24 24 24 24 24 24 23 23 22 23 23 23 23 23 23 23 22 23 23 22 22 22 22 21 21 20 20 20 20 20 20 20 20 20 20 20 20 20 20 20 19 19
23 23 24 23 24 23 22 23 23 23 24 24 24 24 23 23 23 22 23 23 24 22 22 22 22 21 21 20 20 20 21 21 20 20 20 20 20 20 19 20 20 20 20
23 23 24 24 23 23 24 24 24 24 24 24 24 24 23 23 23 23 23 23 24 24 23 22 22 22 21 21 21 21 20 20 20 20 20 20 20 20 20 20 20 20 20
23 23 24 24 23 22 21 23 24 23 24 24 24 24 24 23 23 24 23 23 23 23 24 23 22 22 22 21 21 21 21 21 21 20 20 20 20 20 20 20 21 20 21
23 23 23 23 22 22 23 23 22 23 22 23 23 24 23 23 23 24 23 24 23 23 23 22 23 23 22 21 21 21 21 21 21 21 21 20 20 20 20 20 20 21 21
23 23 23 23 22 23 23 22 22 23 23 23 23 25 24 23 23 23 23 23 23 23 22 22 23 23 22 21 21 20 20 20 20 20 20 21 20 20 20 20 20 20 20
23 23 23 23 22 24 22 22 21 23 23 23 24 24 27 25 24 24 23 23 22 23 22 22 21 20 21 21 19 20 20 20 20 20 20 20 20 20 20 20 20 20 20
23 22 22 23 22 22 24 22 22 22 24 22 21 23 26 27 25 24 23 23 22 22 22 22 21 20 20 21 20 20 19 20 20 20 20 19 19 20 20 20 20 20 20
23 23 22 22 22 23 22 22 21 21 21 24 23 22 21 22 26 26 25 23 23 23 21 22 22 21 20 21 19 18 19 19 19 19 19 19 19 19 19 20 20 20 20
23 23 22 22 22 22 21 21 21 20 22 22 23 23 22 23 22 24 25 25 24 23 22 22 21 22 21 20 20 19 19 19 19 19 19 19 19 19 19 19 19 19 20
24 23 22 22 22 22 21 21 20 20 21 21 22 22 23 24 24 24 24 24 24 23 22 22 21 21 21 21 20 19 19 19 19 19 19 19 19 19 19 19 19 18 18
25 24 22 21 22 21 21 21 20 21 21 21 21 22 23 23 23 23 23 24 24 24 23 22 22 21 21 20 20 19 18 18 18 19 19 19 19 19 19 19 19 19 18
25 24 22 22 22 22 21 21 21 21 21 21 21 21 22 23 23 22 22 22 24 24 24 23 22 21 21 20 20 19 19 18 18 18 18 18 18 18 18 18 18 18 18
25 23 22 22 22 22 21 21 21 21 21 21 21 21 21 22 23 22 22 21 22 23 24 24 23 22 20 21 20 19 19 18 18 18 18 18 18 18 18 18 18 18 18
23 23 22 22 22 21 21 20 22 21 21 21 22 22 21 22 22 22 22 22 22 22 23 23 22 22 21 20 19 19 18 18 18 18 18 17 18 17 18 17 17 17 17
22 22 22 22 22 21 21 20 21 22 21 21 21 21 21 21 21 23 23 22 22 22 22 22 22 21 20 20 19 19 19 19 19 19 18 17 17 17 17 16 16 17 16
21 21 21 20 21 21 21 21 21 22 21 21 21 21 21 22 22 21 21 21 22 21 20 20 20 20 20 20 20 19 19 19 19 19 18 17 17 17 17 16 16 16 16
23 22 23 22 20 21 21 21 21 21 21 21 21 21 21 22 21 22 21 21 22 21 21 21 20 20 20 20 20 19 20 20 19 19 19 18 18 17 17 17 17 17 16
23 21 23 22 20 21 21 21 21 21 21 21 21 21 21 21 21 21 21 21 20 20 21 20 20 21 21 20 21 20 20 21 21 20 20 19 19 18 18 18 18 18 17
23 24 23 20 20 20 20 21 21 21 21 21 21 21 21 21 21 21 21 21 20 20 20 20 21 21 21 20 20 20 20 20 19 20 20 20 19 19 19 19 19 19 18
23 24 22 20 19 19 20 21 21 21 21 21 21 21 20 20 20 20 20 19 18 18 18 19 19 20 19 17 19 19 19 18 19 19 18 18 18 18 19 19 19 18 17
21 22 20 19 19 19 21 21 21 20 21 20 20 19 19 19 19 19 19 18 18 18 17 16 17 17 17 18 17 16 16 17 17 17 16 17 18 18 19 19 18 17 16
20 20 19 19 19 20 19 20 20 19 20 20 19 19 19 18 18 18 19 18 18 18 18 17 16 16 16 15 14 14 14 14 14 15 16 18 18 19 18 17 16 14 14
20 21 20 20 19 20 19 20 20 20 20 19 20 20 21 19 17 18 16 17 18 18 18 16 15 14 14 14 13 13 15 15 15 14 16 17 18 17 16 14 14 14 14
20 20 20 20 20 20 20 21 21 21 19 20 19 19 19 18 17 16 15 17 17 17 17 16 15 15 15 15 15 13 13 13 15 18 18 17 16 13 12 12 13 13 13

GFSMA_925_temp_003.txt.gz
Temp
25 25 25 25 25 26 25 25 25 25 24 24 25 24 24 24 25 25 25 23 23 22 22 21 21 21 20 20 20 20 20 19 20 20 19 19 19 19 20 20 20 19 19
24 25 25 25 25 25 25 25 24 24 24 25 25 24 24 24 24 23 25 24 23 23 22 22 21 22 21 20 20 20 20 20 20 20 20 20 20 20 19 20 20 20 20
25 24 25 25 26 24 23 24 23 24 25 26 25 25 25 24 24 23 24 25 24 23 23 22 22 22 21 20 20 20 21 20 20 20 20 20 20 20 20 20 20 20 20
24 24 25 25 26 25 25 24 24 24 25 26 25 25 25 24 24 24 24 24 25 25 23 23 22 22 22 21 21 22 21 21 21 20 20 20 20 20 21 20 20 20 20
24 24 25 26 24 24 24 24 24 25 25 25 25 26 25 25 24 25 24 24 23 24 25 23 23 22 22 21 21 21 21 21 21 21 21 21 20 20 20 20 20 20 20
24 24 25 24 24 24 24 23 23 24 23 24 25 25 25 24 24 24 24 25 23 24 24 24 23 23 22 22 21 20 21 20 20 21 21 20 20 20 20 20 20 20 20
24 23 24 24 23 24 23 24 23 24 25 25 24 26 25 24 24 24 25 24 24 24 23 23 23 23 21 21 20 20 20 20 21 21 20 20 20 20 20 20 20 20 20
25 24 24 26 25 25 24 23 22 23 25 24 24 25 27 25 24 25 24 24 23 24 23 23 22 21 21 20 20 20 20 20 20 20 20 20 20 20 20 20 20 20 20
25 24 24 23 23 23 25 23 23 22 24 24 23 24 27 24 25 24 24 24 23 23 23 22 22 21 21 21 20 20 20 20 20 20 20 20 20 20 20 20 20 20 20
25 24 23 24 23 24 23 23 23 22 22 25 25 23 23 23 26 25 25 24 24 23 22 22 23 22 21 22 20 19 20 20 20 20 20 20 20 20 20 20 20 20 20
25 25 25 24 23 23 23 22 22 21 23 23 25 25 24 24 23 25 26 25 25 24 23 22 22 22 22 21 21 20 19 19 19 19 19 19 20 20 20 20 20 20 19
25 25 25 23 23 23 23 22 21 21 21 22 23 23 24 25 26 25 25 25 25 24 24 23 22 22 22 22 21 20 19 19 19 19 19 19 19 19 19 19 19 20 20
27 25 24 23 23 22 23 22 21 22 22 22 22 23 23 23 23 24 24 24 22 23 24 24 23 22 22 21 21 20 19 19 19 19 19 19 19 19 19 19 19 19 19
27 26 24 23 23 23 22 22 22 22 22 22 21 22 23 23 22 24 23 22 21 23 24 23 23 22 22 21 21 20 19 19 19 19 19 19 18 18 19 19 18 18 18
27 25 24 23 23 23 22 22 22 22 22 22 22 22 22 23 24 24 23 22 22 22 23 24 24 23 22 22 21 20 20 19 19 18 18 18 18 18 18 18 18 18 18
25 25 24 23 23 23 22 22 22 22 22 22 22 23 22 23 23 23 23 23 23 23 23 23 23 23 22 22 22 21 20 20 19 19 19 18 18 18 18 18 17 18 17
24 24 23 23 23 23 22 21 22 23 22 22 21 22 22 22 22 23 24 24 23 23 23 23 22 22 21 21 21 20 20 20 20 20 20 19 18 18 18 18 17 17 17
24 23 22 22 23 22 22 21 22 22 22 22 22 22 22 22 21 21 22 23 22 22 22 21 21 21 21 21 21 20 20 21 21 21 20 19 19 19 18 18 18 18 17
23 23 22 22 22 22 22 22 22 22 22 23 22 22 22 22 22 22 22 22 22 22 22 22 21 21 21 21 21 21 21 20 20 20 20 20 19 19 18 19 18 18 18
22 22 22 21 21 22 22 22 22 21 22 22 22 22 22 22 21 21 20 21 21 21 21 22 22 21 21 21 21 21 20 20 20 21 21 20 20 20 19 19 19 19 19
22 22 22 21 22 22 22 22 22 22 22 22 22 22 21 21 21 20 21 21 20 21 22 22 22 22 21 22 20 20 20 20 20 21 20 20 20 20 20 19 19 20 20
22 22 21 22 21 22 23 22 22 21 22 22 21 21 21 21 20 20 20 19 18 17 18 19 20 21 19 19 18 17 18 19 20 19 19 19 19 19 19 19 19 20 19
22 23 21 21 21 21 22 21 21 21 21 21 20 20 20 21 20 19 19 19 18 18 17 18 17 17 17 17 17 17 18 17 17 18 17 17 17 18 18 19 20 19 19
22 23 21 22 22 22 21 21 21 20 21 21 21 21 20 20 19 20 19 19 18 18 18 18 16 16 17 17 15 15 15 15 16 17 18 17 17 18 19 19 19 18 17
23 22 21 22 21 21 20 20 20 19 20 20 21 21 20 19 19 19 19 18 18 18 19 19 18 17 16 16 15 14 16 17 17 17 16 17 19 18 18 18 17 16 16
22 22 22 21 21 21 20 20 20 20 20 22 21 19 19 19 19 18 17 17 18 18 19 19 17 16 16 16 16 16 15 16 17 17 18 17 17 17 17 15 15 14 12

GFSMA_925_temp_009.txt.gz
Temp
24 25 24 24 23 24 24 24 24 25 24 25 24 25 25 24 24 24 23 23 23 23 22 22 22 22 20 20 20 20 19 19 19 20 19 20 20 19 19 19 19 19 19
25 25 24 25 25 25 25 25 25 25 25 25 24 25 25 25 24 24 23 23 23 23 22 22 22 21 21 20 20 20 20 20 20 21 20 20 20 20 19 20 20 19 19
25 25 25 25 24 25 25 24 24 24 25 24 25 25 25 25 24 24 23 24 23 23 23 22 22 22 21 21 20 20 20 20 20 20 20 20 20 20 20 20 20 20 20
25 24 25 24 25 25 24 24 24 24 24 24 25 25 25 25 25 24 24 24 24 24 23 23 22 22 22 21 21 21 21 20 20 20 20 20 20 20 20 20 20 20 20
25 25 24 24 24 24 24 24 23 24 24 24 25 25 25 25 25 25 24 24 24 24 24 23 22 22 21 21 21 21 21 20 20 20 20 20 20 20 20 20 20 20 20
25 25 24 24 24 24 24 24 23 23 24 24 24 25 24 24 24 24 24 24 23 23 22 22 22 21 21 21 20 21 21 21 20 20 20 20 20 20 20 20 20 20 20
25 24 24 24 24 24 24 23 23 23 24 24 24 24 25 24 24 24 24 24 24 23 22 22 21 21 21 21 21 20 20 20 21 20 20 20 20 20 20 20 20 20 20
25 25 24 24 24 24 23 23 23 23 23 24 24 23 19 23 24 24 24 24 23 23 22 22 22 21 20 20 21 20 20 20 20 20 20 20 20 20 20 20 20 20 20
25 25 24 24 24 24 23 23 23 23 23 23 24 23 19 19 22 23 24 23 23 23 23 22 22 22 21 21 20 20 21 21 20 19 19 19 19 20 20 19 19 19 19
25 24 24 24 23 24 23 23 22 23 22 23 23 23 24 23 19 19 23 23 23 23 23 22 22 22 22 21 21 21 21 21 21 20 20 20 20 20 20 20 19 19 19
25 25 24 23 23 24 23 23 23 23 22 22 22 23 23 23 23 20 18 21 22 23 23 23 23 22 22 21 21 21 21 21 20 20 20 19 19 19 19 20 20 20 19
25 25 25 24 23 24 24 23 22 23 22 22 22 23 23 23 22 21 18 20 21 22 22 22 23 22 22 22 21 21 21 20 20 20 20 20 19 19 19 19 19 19 19
25 25 24 24 24 24 23 23 22 22 22 22 23 23 22 23 23 23 22 20 20 22 23 23 23 22 22 22 22 21 21 21 20 20 20 19 19 19 19 19 19 19 19
25 25 25 24 24 23 23 22 22 22 21 22 22 22 22 22 22 23 23 22 17 19 22 23 23 23 22 22 22 21 21 21 20 20 19 19 19 19 19 19 19 19 19
26 26 25 25 24 23 23 22 22 22 21 22 22 22 22 22 22 22 23 23 22 17 17 22 23 23 22 22 22 21 21 21 20 20 20 20 20 20 19 19 19 19 19
27 26 25 24 23 23 23 22 22 22 22 22 22 21 22 22 22 22 22 22 23 22 17 22 22 22 22 22 21 21 21 21 21 21 21 20 20 20 20 20 19 19 19
27 27 26 24 24 23 23 22 22 22 22 22 22 22 21 22 22 22 22 22 22 21 20 21 22 22 22 22 22 21 21 21 21 21 21 20 20 20 20 20 19 19 19
27 26 26 25 24 23 23 22 22 22 22 22 22 22 22 22 22 22 22 22 21 21 21 20 21 21 21 21 21 21 21 21 20 20 20 20 20 20 20 20 20 20 20
27 26 26 25 24 24 23 22 22 22 22 22 22 22 21 21 22 22 21 21 21 21 21 20 20 20 20 20 20 20 21 20 20 20 20 20 20 20 20 20 20 20 20
27 26 26 25 24 24 23 22 22 22 22 22 22 22 22 22 22 21 21 21 21 21 20 20 20 20 20 20 19 19 19 19 19 19 19 19 19 19 19 19 19 18 18
25 25 25 24 24 23 23 22 22 22 22 21 22 22 22 22 22 21 21 21 21 21 20 20 18 18 18 18 19 18 18 18 18 18 18 18 18 18 18 18 18 18 18
25 24 24 23 23 22 22 22 22 21 21 21 21 22 22 22 22 21 21 21 21 20 20 18 18 17 18 17 18 18 17 16 15 17 17 16 17 16 17 17 17 17 17
24 24 23 23 22 22 22 21 21 21 21 21 21 21 21 21 21 21 21 21 21 20 20 19 18 18 18 18 18 17 17 16 16 17 16 15 17 16 17 17 16 16 16
24 24 23 23 22 21 21 21 22 22 21 21 21 21 21 21 21 21 20 20 20 20 19 18 18 18 18 18 18 17 16 16 16 16 16 13 16 16 16 16 16 16 16
23 22 23 22 21 20 20 21 22 22 21 21 21 21 21 21 21 20 20 20 20 19 19 18 18 18 18 18 17 16 16 15 14 15 16 15 15 15 15 15 15 15 15
24 22 22 21 21 20 20 21 21 21 21 21 20 20 20 20 20 20 19 19 18 18 17 17 17 16 17 17 17 17 16 14 13 13 15 15 15 15 14 14 15 14 14

GFSMA_925_temp_012.txt.gz
Temp
25 24 25 25 24 24 24 24 25 24 24 24 24 24 24 24 24 23 23 23 22 22 21 21 21 21 20 20 19 20 19 20 20 19 19 19 19 20 19 19 19 19 19
25 25 25 24 24 24 24 24 24 24 24 25 25 25 25 25 24 23 23 23 23 22 22 21 22 22 21 20 20 19 19 19 19 19 19 20 19 19 20 19 19 19 19
25 25 24 24 24 24 24 24 24 24 24 24 24 24 25 24 24 23 23 23 23 22 22 22 21 21 21 21 20 20 20 20 20 20 20 19 20 19 19 19 19 20 20
25 24 24 24 24 24 24 24 24 24 24 24 24 25 25 24 24 24 24 24 23 22 22 22 22 21 21 21 20 20 20 20 20 20 20 20 20 20 20 20 20 20 19
25 25 25 24 24 24 24 24 23 23 24 24 24 24 24 24 24 24 23 24 24 23 23 22 22 21 21 21 20 20 20 20 20 20 20 20 20 20 20 20 20 20 20
25 25 24 24 24 24 23 23 23 23 23 23 24 24 24 24 24 24 23 24 24 24 22 22 22 21 21 21 21 20 20 20 20 20 20 20 20 20 20 20 20 20 20
25 25 25 24 23 23 23 23 23 23 23 23 24 24 23 23 24 24 23 23 23 23 22 22 22 21 21 21 20 20 20 20 20 20 20 20 20 20 20 20 20 20 20
25 25 24 24 23 23 23 23 23 23 23 23 23 21 19 22 23 23 23 23 22 22 22 22 22 21 21 20 21 20 20 20 20 20 20 20 20 20 20 20 20 20 20
25 25 24 24 23 23 23 23 23 23 23 22 23 22 18 18 20 22 23 23 23 22 22 22 22 21 21 21 21 21 21 21 20 20 19 19 19 19 19 19 19 19 20
25 25 24 24 24 24 23 23 23 23 23 23 22 23 23 22 18 19 22 22 23 23 22 22 21 21 21 21 21 21 21 21 21 21 20 20 20 20 20 19 19 19 19
25 25 24 24 24 23 24 23 23 22 22 22 22 22 22 22 22 19 17 20 22 22 23 22 22 22 22 21 21 21 21 21 20 20 20 20 20 20 20 20 20 20 20
25 25 24 24 23 23 23 23 23 23 22 22 22 22 23 22 21 20 16 18 20 22 23 22 22 22 22 22 21 21 21 20 20 20 20 20 20 20 20 20 20 20 20
25 24 24 24 23 23 23 23 22 22 22 22 22 22 22 23 23 22 21 19 19 21 22 23 22 22 22 22 21 21 21 21 20 20 20 20 19 19 19 19 19 19 19
25 25 24 24 24 23 23 23 22 22 22 22 22 22 22 22 22 22 22 21 17 18 20 22 23 23 22 22 22 21 21 21 21 20 20 20 19 19 19 19 19 19 19
25 25 25 24 24 23 23 23 23 22 22 22 22 21 22 22 22 22 22 22 22 16 16 22 22 22 22 22 22 21 21 21 21 20 20 20 19 20 20 19 19 19 19
25 25 25 24 24 23 23 23 23 22 22 21 21 21 22 22 22 22 22 22 22 21 17 21 22 22 22 22 22 21 21 21 20 20 20 20 20 20 19 19 19 19 19
26 25 25 24 24 23 23 23 23 22 22 21 21 21 21 21 21 21 22 22 22 21 19 21 21 21 21 21 21 21 21 21 21 21 20 20 20 20 20 20 20 20 20
26 26 25 24 24 24 23 23 22 22 22 22 21 21 21 21 21 21 21 21 21 21 20 20 21 21 21 22 21 21 21 21 20 20 20 20 20 20 20 20 19 20 20
26 26 25 25 24 24 23 23 23 22 22 22 22 21 21 21 21 21 21 21 21 20 20 20 20 21 21 21 21 20 20 20 20 19 19 19 19 19 19 18 19 19 19
25 25 25 25 25 24 23 23 23 22 22 22 22 21 21 21 21 21 21 21 21 20 20 20 20 20 19 20 19 19 19 19 19 19 19 18 18 18 18 18 18 18 18
24 25 25 24 24 23 24 23 22 22 22 22 22 21 21 21 21 21 21 21 21 21 20 19 18 18 18 19 18 18 17 17 18 18 18 18 17 17 17 17 17 17 17
24 24 24 24 24 24 24 23 23 22 21 22 22 22 21 21 21 21 21 21 21 21 20 19 19 17 19 18 18 17 17 16 15 17 16 16 16 17 16 17 17 16 16
23 23 23 24 24 24 24 23 22 22 21 21 22 22 21 21 21 21 21 21 21 21 20 20 19 19 18 18 18 17 16 16 16 17 15 15 16 16 16 16 16 16 16
22 23 23 24 24 23 23 22 22 21 21 21 22 22 21 21 21 20 21 20 20 20 20 19 19 19 18 18 17 16 15 15 16 16 16 14 16 15 15 15 15 16 16
22 23 24 23 23 23 21 21 20 20 20 21 21 21 21 21 21 20 20 20 20 20 19 18 18 18 18 17 17 16 16 14 14 15 15 14 15 15 15 15 16 15 15
22 23 24 23 23 23 20 20 20 20 20 20 21 20 20 20 20 20 20 20 19 19 18 17 17 17 17 16 16 16 15 14 13 12 15 14 14 14 13 14 15 15 15